Time,TemperatureF,DewpointF,PressureIn,WindDirection,WindDirectionDegrees,WindSpeedMPH,WindSpeedGustMPH,Humidity,HourlyPrecipIn,Conditions,Clouds,dailyrainin,SoftwareType,DateUTC
2013-05-05 14:32:00,52.0,43.5,28.06,East,90,5.0,-999.0,73,-99.99,,,0.00,meteohub,2013-05-05 18:32:00,
2013-05-05 14:33:00,51.8,43.3,28.06,NW,315,3.0,-999.0,73,-99.99,,,0.00,meteohub,2013-05-05 18:33:00,
2013-05-05 14:35:00,51.8,43.3,28.07,NE,45,13.0,-999.0,73,-99.99,,,0.00,meteohub,2013-05-05 18:35:00,
2013-05-05 14:37:00,51.8,43.3,28.06,NE,45,7.0,-999.0,73,-99.99,,,0.00,meteohub,2013-05-05 18:37:00,
2013-05-05 14:42:00,51.6,43.9,28.07,NNW,338,5.0,13.0,75,0.00,,,0.00,meteohub,2013-05-05 18:42:00,
2013-05-05 14:47:00,51.6,43.9,28.07,North,0,8.0,13.0,75,0.00,,,0.00,meteohub,2013-05-05 18:47:00,
2013-05-05 14:52:00,51.6,43.9,28.06,East,90,7.0,13.0,75,0.00,,,0.00,meteohub,2013-05-05 18:52:00,
2013-05-05 14:57:00,52.0,44.2,28.07,East,90,7.0,10.0,75,0.00,,,0.00,meteohub,2013-05-05 18:57:00,
2013-05-05 15:02:00,52.2,44.1,28.07,SE,135,8.0,8.0,74,0.00,,,0.00,meteohub,2013-05-05 19:02:00,
2013-05-05 15:07:00,52.0,43.9,28.07,East,90,4.0,8.0,74,0.00,,,0.00,meteohub,2013-05-05 19:07:00,
2013-05-05 15:12:00,52.0,44.2,28.07,NE,45,2.0,8.0,75,0.00,,,0.00,meteohub,2013-05-05 19:12:00,
2013-05-05 15:17:00,52.0,44.2,28.07,East,90,2.0,8.0,75,0.00,,,0.00,meteohub,2013-05-05 19:17:00,
2013-05-05 15:22:00,52.0,44.2,28.07,East,90,4.0,8.0,75,0.00,,,0.00,meteohub,2013-05-05 19:22:00,
2013-05-05 15:28:00,51.8,44.1,28.07,East,90,5.0,8.0,75,0.00,,,0.00,meteohub,2013-05-05 19:28:00,
2013-05-05 15:33:00,51.8,44.1,28.07,NE,45,8.0,8.0,75,0.00,,,0.00,meteohub,2013-05-05 19:33:00,
2013-05-05 15:38:00,51.4,44.1,28.07,South,180,3.0,9.0,76,0.00,,,0.00,meteohub,2013-05-05 19:38:00,
2013-05-05 15:43:00,51.3,44.2,28.07,NE,45,4.0,10.0,77,0.00,,,0.00,meteohub,2013-05-05 19:43:00,
2013-05-05 15:48:00,51.4,44.4,28.07,NE,45,6.0,10.0,77,0.00,,,0.00,meteohub,2013-05-05 19:48:00,
2013-05-05 15:54:00,51.6,45.0,28.06,North,0,8.0,8.0,78,0.00,,,0.00,meteohub,2013-05-05 19:54:00,
2013-05-05 15:59:00,51.6,45.3,28.06,SE,135,7.0,8.0,79,0.00,,,0.00,meteohub,2013-05-05 19:59:00,
2013-05-05 16:04:00,51.8,45.1,28.05,East,90,6.0,8.0,78,0.00,,,0.00,meteohub,2013-05-05 20:04:00,
2013-05-05 16:09:00,51.8,45.1,28.05,SE,135,5.0,8.0,78,0.00,,,0.00,meteohub,2013-05-05 20:09:00,
2013-05-05 16:14:00,51.8,45.1,28.05,NE,45,4.0,9.0,78,0.00,,,0.00,meteohub,2013-05-05 20:14:00,
2013-05-05 16:19:00,52.0,45.3,28.05,NE,45,8.0,11.0,78,0.00,,,0.00,meteohub,2013-05-05 20:19:00,
2013-05-05 16:24:00,52.0,45.3,28.05,East,90,11.0,11.0,78,0.00,,,0.00,meteohub,2013-05-05 20:24:00,
2013-05-05 16:29:00,52.0,45.7,28.05,East,90,5.0,11.0,79,0.00,,,0.00,meteohub,2013-05-05 20:29:00,
2013-05-05 16:35:00,52.0,45.7,28.04,SW,225,5.0,16.0,79,0.00,,,0.00,meteohub,2013-05-05 20:35:00,
2013-05-05 16:40:00,52.0,45.7,28.04,NW,315,3.0,11.0,79,0.00,,,0.00,meteohub,2013-05-05 20:40:00,
2013-05-05 16:45:00,52.3,46.4,28.04,SE,135,4.0,9.0,80,0.00,,,0.00,meteohub,2013-05-05 20:45:00,
2013-05-05 16:50:00,52.2,46.2,28.04,SE,135,4.0,11.0,80,0.00,,,0.00,meteohub,2013-05-05 20:50:00,
2013-05-05 16:55:00,52.0,46.0,28.04,SE,135,4.0,11.0,80,0.00,,,0.00,meteohub,2013-05-05 20:55:00,
2013-05-05 17:00:00,51.8,46.2,28.04,NE,45,8.0,11.0,81,0.00,,,0.00,meteohub,2013-05-05 21:00:00,
2013-05-05 17:05:00,51.8,46.2,28.04,ENE,68,7.0,10.0,81,0.00,,,0.00,meteohub,2013-05-05 21:05:00,
2013-05-05 17:10:00,51.6,46.2,28.04,SE,135,5.0,13.0,82,0.00,,,0.00,meteohub,2013-05-05 21:10:00,
2013-05-05 17:15:00,51.4,46.4,28.04,NE,45,10.0,13.0,83,0.00,,,0.00,meteohub,2013-05-05 21:15:00,
2013-05-05 17:20:00,51.4,46.4,28.04,SE,135,6.0,13.0,83,0.00,,,0.00,meteohub,2013-05-05 21:20:00,
2013-05-05 17:26:00,51.3,46.2,28.04,West,270,11.0,11.0,83,0.00,,,0.00,meteohub,2013-05-05 21:26:00,
2013-05-05 17:31:00,51.3,46.6,28.04,East,90,9.0,11.0,84,0.00,,,0.00,meteohub,2013-05-05 21:31:00,
2013-05-05 17:36:00,51.1,46.4,28.04,SE,135,6.0,12.0,84,0.00,,,0.00,meteohub,2013-05-05 21:36:00,
2013-05-05 17:41:00,50.9,46.6,28.04,NE,45,9.0,14.0,85,0.00,,,0.00,meteohub,2013-05-05 21:41:00,
2013-05-05 17:46:00,50.7,46.8,28.03,SE,135,4.0,14.0,86,0.00,,,0.00,meteohub,2013-05-05 21:46:00,
2013-05-05 17:51:00,50.7,46.9,28.03,NE,45,8.0,14.0,87,0.00,,,0.00,meteohub,2013-05-05 21:51:00,
2013-05-05 17:56:00,50.5,47.1,28.03,East,90,8.0,10.0,88,0.00,,,0.00,meteohub,2013-05-05 21:56:00,
2013-05-05 18:01:00,50.4,46.9,28.03,SE,135,4.0,8.0,88,0.00,,,0.00,meteohub,2013-05-05 22:01:00,
2013-05-05 18:06:00,50.5,47.5,28.03,NE,45,6.0,12.0,89,0.00,,,0.00,meteohub,2013-05-05 22:06:00,
2013-05-05 18:12:00,50.5,47.7,28.03,South,180,4.0,12.0,90,0.00,,,0.00,meteohub,2013-05-05 22:12:00,
2013-05-05 18:17:00,50.5,47.7,28.04,East,90,7.0,11.0,90,0.00,,,0.00,meteohub,2013-05-05 22:17:00,
2013-05-05 18:22:00,50.4,47.5,28.03,East,90,3.0,11.0,90,0.00,,,0.00,meteohub,2013-05-05 22:22:00,
2013-05-05 18:27:00,50.4,47.8,28.03,East,90,7.0,9.0,91,0.00,,,0.00,meteohub,2013-05-05 22:27:00,
2013-05-05 18:32:00,50.4,48.2,28.03,SW,225,3.0,7.0,92,0.00,,,0.00,meteohub,2013-05-05 22:32:00,
2013-05-05 18:37:00,50.4,48.2,28.03,East,90,8.0,8.0,92,0.00,,,0.00,meteohub,2013-05-05 22:37:00,
2013-05-05 18:42:00,50.4,48.4,28.02,NE,45,6.0,9.0,93,0.00,,,0.00,meteohub,2013-05-05 22:42:00,
2013-05-05 18:47:00,50.4,48.4,28.02,NE,45,7.0,9.0,93,0.00,,,0.00,meteohub,2013-05-05 22:47:00,
2013-05-05 18:52:00,50.2,48.6,28.02,East,90,8.0,9.0,94,0.00,,,0.00,meteohub,2013-05-05 22:52:00,
2013-05-05 18:57:00,50.2,48.6,28.01,SE,135,5.0,11.0,94,0.00,,,0.00,meteohub,2013-05-05 22:57:00,
2013-05-05 19:02:00,50.2,48.6,28.01,SW,225,6.0,11.0,94,0.00,,,0.00,meteohub,2013-05-05 23:02:00,
2013-05-05 19:07:00,50.2,48.7,28.02,East,90,6.0,11.0,95,0.00,,,0.00,meteohub,2013-05-05 23:07:00,
2013-05-05 19:12:00,50.2,48.7,28.02,East,90,4.0,9.0,95,0.00,,,0.00,meteohub,2013-05-05 23:12:00,
2013-05-05 19:17:00,50.4,48.9,28.02,East,90,2.0,9.0,95,0.00,,,0.00,meteohub,2013-05-05 23:17:00,
2013-05-05 19:22:00,50.2,49.1,28.02,SE,135,6.0,9.0,96,0.00,,,0.00,meteohub,2013-05-05 23:22:00,
2013-05-05 19:27:00,50.2,49.1,28.02,SE,135,3.0,8.0,96,0.01,,,0.01,meteohub,2013-05-05 23:27:00,
2013-05-05 19:32:00,50.2,49.1,28.03,South,180,2.0,7.0,96,0.01,,,0.01,meteohub,2013-05-05 23:32:00,
2013-05-05 19:37:00,50.4,49.3,28.03,SE,135,3.0,7.0,96,0.01,,,0.01,meteohub,2013-05-05 23:37:00,
2013-05-05 19:42:00,50.4,49.3,28.03,NE,45,4.0,7.0,96,0.01,,,0.01,meteohub,2013-05-05 23:42:00,
2013-05-05 19:47:00,50.2,49.3,28.04,East,90,4.0,8.0,97,0.01,,,0.01,meteohub,2013-05-05 23:47:00,
2013-05-05 19:52:00,50.4,49.5,28.03,NE,45,5.0,8.0,97,0.01,,,0.01,meteohub,2013-05-05 23:52:00,
2013-05-05 19:57:00,50.2,49.6,28.03,SE,135,5.0,11.0,98,0.01,,,0.01,meteohub,2013-05-05 23:57:00,
2013-05-05 20:02:00,50.2,49.8,28.03,NE,45,8.0,11.0,99,0.01,,,0.01,meteohub,2013-05-06 00:02:00,
2013-05-05 20:08:00,50.2,49.8,28.02,NE,45,6.0,11.0,99,0.01,,,0.01,meteohub,2013-05-06 00:08:00,
2013-05-05 20:13:00,50.0,49.6,28.02,ENE,68,7.0,8.0,99,0.01,,,0.01,meteohub,2013-05-06 00:13:00,
2013-05-05 20:18:00,50.2,49.8,28.02,NE,45,4.0,10.0,99,0.01,,,0.01,meteohub,2013-05-06 00:18:00,
2013-05-05 20:23:00,50.2,49.8,28.02,East,90,4.0,10.0,99,0.01,,,0.01,meteohub,2013-05-06 00:23:00,
2013-05-05 20:28:00,50.2,49.8,28.03,North,0,2.0,10.0,99,0.00,,,0.01,meteohub,2013-05-06 00:28:00,
2013-05-05 20:33:00,50.2,49.8,28.03,NE,45,4.0,8.0,99,0.00,,,0.01,meteohub,2013-05-06 00:33:00,
2013-05-05 20:38:00,50.2,49.8,28.03,ENE,68,10.0,10.0,99,0.00,,,0.01,meteohub,2013-05-06 00:38:00,
2013-05-05 20:43:00,50.4,50.0,28.03,SE,135,6.0,10.0,99,0.01,,,0.02,meteohub,2013-05-06 00:43:00,
2013-05-05 20:48:00,50.4,50.0,28.03,East,90,4.0,10.0,99,0.01,,,0.02,meteohub,2013-05-06 00:48:00,
2013-05-05 20:54:00,50.4,50.0,28.02,East,90,5.0,10.0,99,0.01,,,0.02,meteohub,2013-05-06 00:54:00,
2013-05-05 20:59:00,50.5,50.2,28.02,East,90,2.0,8.0,99,0.01,,,0.02,meteohub,2013-05-06 00:59:00,
2013-05-05 21:04:00,50.5,50.2,28.02,NE,45,5.0,8.0,99,0.01,,,0.02,meteohub,2013-05-06 01:04:00,
2013-05-05 21:09:00,50.5,50.2,28.02,East,90,5.0,9.0,99,0.01,,,0.02,meteohub,2013-05-06 01:09:00,
2013-05-05 21:14:00,50.7,50.4,28.02,East,90,5.0,9.0,99,0.01,,,0.02,meteohub,2013-05-06 01:14:00,
2013-05-05 21:19:00,50.7,50.4,28.02,NE,45,7.0,9.0,99,0.01,,,0.02,meteohub,2013-05-06 01:19:00,
2013-05-05 21:24:00,50.9,50.5,28.02,ENE,68,11.0,11.0,99,0.01,,,0.02,meteohub,2013-05-06 01:24:00,
2013-05-05 21:29:00,50.9,50.5,28.02,East,90,11.0,11.0,99,0.01,,,0.02,meteohub,2013-05-06 01:29:00,
2013-05-05 21:34:00,50.9,50.5,28.02,NE,45,6.0,11.0,99,0.01,,,0.02,meteohub,2013-05-06 01:34:00,
2013-05-05 21:40:00,51.1,50.7,28.02,East,90,3.0,20.0,99,0.01,,,0.02,meteohub,2013-05-06 01:40:00,
2013-05-05 21:45:00,51.1,50.7,28.02,East,90,8.0,20.0,99,0.00,,,0.02,meteohub,2013-05-06 01:45:00,
2013-05-05 21:50:00,51.1,50.7,28.02,SE,135,8.0,11.0,99,0.00,,,0.02,meteohub,2013-05-06 01:50:00,
2013-05-05 21:55:00,51.1,50.7,28.02,ENE,68,7.0,11.0,99,0.00,,,0.02,meteohub,2013-05-06 01:55:00,
2013-05-05 22:00:00,51.1,50.7,28.02,East,90,8.0,11.0,99,0.00,,,0.02,meteohub,2013-05-06 02:00:00,
2013-05-05 22:05:00,51.3,50.9,28.02,East,90,10.0,11.0,99,0.00,,,0.02,meteohub,2013-05-06 02:05:00,
2013-05-05 22:10:00,51.3,50.9,28.02,East,90,6.0,10.0,99,0.00,,,0.02,meteohub,2013-05-06 02:10:00,
2013-05-05 22:15:00,51.3,50.9,28.02,NE,45,9.0,13.0,99,0.00,,,0.02,meteohub,2013-05-06 02:15:00,
2013-05-05 22:20:00,51.3,50.9,28.03,NE,45,3.0,13.0,99,0.00,,,0.02,meteohub,2013-05-06 02:20:00,
2013-05-05 22:25:00,51.4,51.1,28.02,SE,135,5.0,13.0,99,0.00,,,0.02,meteohub,2013-05-06 02:25:00,
2013-05-05 22:31:00,51.3,50.9,28.03,East,90,4.0,11.0,99,0.00,,,0.02,meteohub,2013-05-06 02:31:00,
2013-05-05 22:36:00,51.3,50.9,28.03,East,90,7.0,10.0,99,0.00,,,0.02,meteohub,2013-05-06 02:36:00,
2013-05-05 22:41:00,51.1,50.7,28.03,NE,45,4.0,9.0,99,0.00,,,0.02,meteohub,2013-05-06 02:41:00,
2013-05-05 22:46:00,51.1,50.7,28.03,East,90,5.0,10.0,99,0.00,,,0.02,meteohub,2013-05-06 02:46:00,
2013-05-05 22:51:00,51.1,50.7,28.03,East,90,5.0,10.0,99,0.00,,,0.02,meteohub,2013-05-06 02:51:00,
2013-05-05 22:56:00,51.1,50.7,28.03,NE,45,5.0,10.0,99,0.00,,,0.02,meteohub,2013-05-06 02:56:00,
2013-05-05 23:01:00,51.1,50.7,28.03,East,90,4.0,13.0,99,0.00,,,0.02,meteohub,2013-05-06 03:01:00,
2013-05-05 23:06:00,51.1,50.7,28.02,SE,135,5.0,13.0,99,0.00,,,0.02,meteohub,2013-05-06 03:06:00,
2013-05-05 23:11:00,51.1,50.7,28.02,East,90,7.0,13.0,99,0.00,,,0.02,meteohub,2013-05-06 03:11:00,
2013-05-05 23:17:00,51.1,50.7,28.02,East,90,11.0,14.0,99,0.00,,,0.02,meteohub,2013-05-06 03:17:00,
2013-05-05 23:22:00,51.1,50.7,28.02,NE,45,8.0,14.0,99,0.00,,,0.02,meteohub,2013-05-06 03:22:00,
2013-05-05 23:27:00,51.1,50.7,28.02,East,90,12.0,14.0,99,0.00,,,0.02,meteohub,2013-05-06 03:27:00,
2013-05-05 23:32:00,51.1,50.7,28.02,NE,45,11.0,12.0,99,0.00,,,0.02,meteohub,2013-05-06 03:32:00,
2013-05-05 23:37:00,51.1,50.7,28.01,NW,315,4.0,13.0,99,0.00,,,0.02,meteohub,2013-05-06 03:37:00,
2013-05-05 23:42:00,51.1,50.7,28.02,NE,45,10.0,14.0,99,0.00,,,0.02,meteohub,2013-05-06 03:42:00,
2013-05-05 23:47:00,51.1,50.7,28.01,East,90,7.0,14.0,99,0.00,,,0.02,meteohub,2013-05-06 03:47:00,
2013-05-05 23:52:00,51.1,50.7,28.01,East,90,8.0,14.0,99,0.00,,,0.02,meteohub,2013-05-06 03:52:00,
2013-05-05 23:58:00,50.9,50.5,28.01,East,90,7.0,15.0,99,0.00,,,0.02,meteohub,2013-05-06 03:58:00,